Temperature
12 12 12 12 12 12 12 12 12 12 12 12 12 12 12 12 12 12 11 11 11 11 11 11 11 11 11 11 11 11 11 11 11 12 12 12 11 11 11 11 11 11 11
12 12 12 12 12 12 12 12 12 12 12 12 12 12 12 11 11 11 11 11 11 11 11 11 11 11 11 11 11 11 11 11 11 11 11 11 11 11 11 11 11 11 11
12 12 12 11 11 11 11 12 12 12 12 12 12 11 11 11 11 11 11 11 11 11 11 11 11 11 10 11 11 11 11 11 11 11 11 11 11 11 11 11 11 11 11
11 11 11 11 11 11 11 11 11 12 11 11 11 11 11 11 11 11 11 11 11 11 10 10 10 10 10 10 10 10 11 11 11 11 11 11 11 11 11 11 11 11 11
11 11 11 11 11 11 11 11 11 11 11 11 11 11 11 11 11 11 11 11 11 11 10 10 10 11 11 11 10 11 10 11 11 11 11 11 11 11 11 11 11 11 11
11 11 11 11 11 11 11 11 11 11 11 11 11 11 11 11 11 11 11 10 10 10 10 10 10 10 11 11 11 10 10 10 10 10 11 11 10 10 10 10 10 10 10
11 11 11 11 11 11 11 11 11 11 11 11 11 11 11 11 11 11 11 10 10 10 10 10 10 10 10 10 10 10 10 10 10 10 10 10 10 10 10 10 10 10 10
11 11 11 11 11 11 11 11 11 10 11 11 11 10 10 11 11 11 11 10 10 10 10 10 10 10 10 10 10 10 10 10 10 10 9 10 9 9 9 9 9 9 9
11 11 11 11 11 11 11 11 10 10 10 10 10 10 10 10 11 11 11 10 10 10 10 10 10 10 10 10 10 10 10 10 10 10 10 10 9 9 9 9 9 9 10
11 11 11 11 11 11 11 11 10 10 10 10 10 10 10 10 11 11 10 10 10 10 10 10 10 10 10 10 10 9 9 9 9 10 9 9 9 9 9 9 9 9 9
11 11 11 11 11 11 11 10 10 10 10 10 10 10 10 10 10 10 10 10 10 10 10 10 10 10 10 9 9 9 9 9 9 9 9 9 9 9 9 9 9 8 9
11 11 11 10 10 11 10 10 10 10 10 10 10 10 10 10 10 10 10 10 10 9 10 9 9 9 9 9 9 9 9 9 9 9 9 9 9 9 9 8 8 8 8
11 11 10 10 10 10 10 10 10 10 11 11 11 11 10 10 10 10 9 9 9 9 9 9 9 9 9 9 9 9 9 9 9 9 9 9 9 8 8 8 8 8 8
10 10 10 10 10 10 10 10 11 11 11 10 10 10 10 10 9 9 9 9 9 9 9 9 9 9 9 9 8 8 8 8 8 8 8 8 8 8 8 8 8 8 8
11 11 11 11 11 10 10 10 10 10 10 10 10 10 10 10 9 9 9 9 9 9 9 9 9 9 9 9 8 8 8 8 8 8 8 8 8 8 8 8 8 8 8
11 11 11 11 11 11 11 11 11 10 10 10 10 10 9 9 9 9 9 9 9 9 9 9 9 9 9 9 8 8 8 8 7 7 7 7 7 7 7 7 7 7 8
11 11 11 11 11 11 11 11 11 11 10 10 10 10 10 9 9 9 9 9 9 9 9 9 9 8 8 8 8 8 8 7 7 7 7 7 7 7 7 7 7 7 7
11 11 11 11 11 11 11 11 11 11 11 10 10 10 10 10 9 9 9 9 9 9 9 8 8 8 8 8 8 8 7 7 7 7 7 7 7 7 7 7 7 6 7
11 11 11 11 11 11 11 11 11 11 11 11 10 10 10 10 9 9 9 9 9 9 8 8 8 8 8 8 7 7 7 7 7 7 7 6 6 6 6 7 7 6 6
11 11 11 10 11 11 11 11 11 11 11 10 10 10 10 10 10 9 9 9 9 8 8 8 8 8 8 8 7 7 7 7 7 7 7 6 6 6 6 6 6 6 6
11 11 11 11 11 11 11 11 11 11 10 10 10 10 10 9 9 9 9 9 8 8 8 8 8 8 7 7 7 7 7 7 7 6 6 6 6 6 6 6 6 6 6
11 11 11 11 11 11 11 11 11 10 10 10 10 10 9 9 9 9 9 9 8 8 8 8 8 8 7 7 7 7 7 6 6 6 6 6 6 6 6 6 6 6 6
11 11 11 11 11 11 10 11 11 10 10 10 10 10 10 9 9 9 9 9 8 8 8 8 8 8 7 7 7 7 6 6 6 6 6 6 6 5 5 5 5 6 6
11 11 11 11 11 11 11 11 11 11 10 10 10 10 10 9 9 9 9 9 8 8 8 8 8 7 7 7 7 7 6 6 6 6 6 5 5 5 5 5 5 5 5
11 11 11 11 11 11 11 11 11 11 10 10 10 10 9 9 9 9 9 9 8 8 8 8 8 8 7 7 7 7 7 7 7 6 6 6 5 5 5 5 5 5 5
11 11 11 11 11 11 11 11 11 10 10 10 10 10 9 9 9 9 9 9 9 8 8 8 8 8 8 7 7 7 7 7 7 6 6 6 5 5 5 5 5 5 5
Wind_Speed
6 5 5 5 5 5 4 4 4 5 5 5 5 5 4 4 4 4 5 5 5 5 5 6 6 6 5 5 5 6 7 7 8 8 6 6 6 8 6 7 8 8 8
6 6 5 5 5 5 5 5 4 4 5 5 5 5 5 4 4 5 5 5 5 5 5 6 6 5 6 6 5 6 6 6 8 9 8 7 7 7 7 8 8 8 8
6 6 5 5 5 5 5 6 5 5 4 4 5 5 5 4 5 5 6 5 5 5 5 6 6 6 7 6 6 6 6 7 7 8 8 7 6 6 7 8 8 7 8
6 6 6 6 5 5 6 6 5 5 4 4 4 4 4 5 5 6 5 6 6 6 6 6 7 7 7 7 6 7 7 7 7 7 7 6 6 6 6 7 6 6 6
6 6 6 6 5 6 6 6 5 4 4 4 4 4 4 4 5 6 6 6 6 6 6 6 6 5 6 7 7 6 7 7 6 6 6 6 5 5 6 6 7 6 6
6 6 6 6 5 5 6 6 5 4 4 4 4 4 4 3 5 7 7 6 6 6 6 6 6 5 6 7 9 9 8 8 7 7 6 7 7 7 6 7 7 6 6
6 6 6 5 5 5 5 6 5 4 4 4 4 4 4 4 5 6 7 7 6 5 5 6 6 5 5 7 7 9 9 10 9 8 8 8 8 7 7 8 7 7 7
5 6 6 5 5 5 5 5 5 5 4 4 4 4 4 5 5 6 8 6 5 5 5 5 6 6 5 6 7 7 7 6 6 7 7 8 8 7 6 7 8 8 7
5 5 6 5 5 5 5 5 5 5 5 4 4 5 5 5 5 6 7 5 4 5 5 4 5 5 3 5 6 7 7 6 4 6 7 8 8 7 6 6 6 6 6
6 5 5 4 4 5 5 5 5 5 5 5 5 5 5 5 4 5 7 5 4 5 4 4 2 3 4 5 5 6 6 6 7 6 5 6 7 6 7 6 6 6 6
6 5 4 4 4 4 5 5 5 4 5 5 5 5 4 4 3 3 5 5 6 6 5 5 4 3 4 5 5 4 6 8 8 7 5 4 3 3 3 3 4 5 6
5 4 4 4 4 4 5 5 5 5 4 4 4 4 3 3 3 3 3 5 7 6 6 5 5 4 4 5 4 5 7 8 6 6 5 5 4 4 3 3 4 5 6
4 3 3 4 4 5 5 5 4 4 5 4 4 4 4 3 3 2 3 4 5 5 4 5 5 4 4 3 2 5 6 5 5 6 5 5 5 4 4 4 4 4 5
4 4 3 4 4 4 5 5 5 5 4 4 5 4 4 4 4 5 4 3 3 4 4 3 4 5 4 3 3 3 3 4 5 5 5 5 5 4 4 4 5 4 5
4 4 4 4 4 4 4 4 5 4 4 5 5 5 5 4 5 7 7 6 6 6 7 4 3 3 3 3 3 4 4 4 4 5 5 4 4 4 4 4 4 5 5
5 5 4 4 4 4 4 3 1 2 1 2 4 6 4 4 4 6 7 7 7 8 6 4 4 4 4 4 4 4 4 4 5 5 4 4 5 5 5 5 5 5 6
5 5 5 5 5 5 5 4 3 2 3 3 3 4 4 5 6 6 8 8 6 5 3 4 4 5 5 5 5 5 5 5 5 5 5 5 5 5 5 5 5 5 6
5 4 5 5 5 5 5 4 4 4 4 3 2 4 4 6 5 6 6 5 3 2 4 4 4 4 5 5 5 5 5 5 5 6 5 5 6 6 6 6 5 6 6
5 4 4 5 5 4 4 4 4 4 4 4 4 1 2 4 4 3 3 3 4 4 4 5 4 4 5 5 5 5 6 5 6 6 6 6 6 6 6 6 6 6 7
3 3 5 5 4 4 4 4 4 3 4 4 4 4 3 3 3 3 2 3 4 4 4 5 5 5 5 5 5 5 5 5 6 5 6 6 6 6 6 7 7 6 6
4 3 4 5 4 4 4 4 3 3 3 3 3 4 5 4 4 5 4 4 4 4 4 5 5 4 5 5 5 6 6 6 6 6 6 6 6 6 6 6 6 7 6
4 4 3 4 3 3 3 3 3 3 3 2 2 2 2 3 4 4 4 4 4 4 4 4 5 4 5 5 5 5 5 6 6 6 7 7 6 6 6 6 6 6 6
4 3 3 3 3 3 3 3 2 2 2 3 3 3 3 4 4 4 4 4 4 4 4 4 4 5 4 4 5 5 5 6 6 7 7 6 6 6 6 6 7 7 6
4 3 3 3 3 3 3 3 3 2 2 2 3 3 4 4 4 4 4 4 4 4 4 4 4 5 6 5 4 4 5 6 7 6 7 6 6 6 5 5 6 6 6
3 3 3 3 3 3 3 3 3 3 2 2 3 4 4 4 4 4 4 4 4 4 4 4 4 5 5 6 6 6 5 5 6 7 5 5 5 5 5 6 5 6 6
3 3 3 3 3 3 3 3 3 3 2 3 3 3 4 4 4 4 4 4 4 4 4 4 5 5 6 5 6 6 4 4 5 7 6 4 4 4 5 5 6 6 6
Wind_Direction
338 337 337 333 335 327 320 311 306 301 298 297 298 298 291 288 288 283 280 277 270 265 263 262 264 270 269 271 267 265 266 265 269 278 282 285 280 279 282 276 265 257 244
338 335 336 334 332 325 323 318 310 306 302 301 301 297 293 296 297 291 287 288 279 276 272 270 269 263 263 266 267 267 269 269 268 275 280 280 276 276 277 273 271 267 265
334 334 332 328 331 327 325 321 317 314 309 304 300 298 297 300 300 296 292 286 284 283 280 276 276 272 270 269 265 269 271 269 265 269 274 278 277 277 278 274 271 268 267
328 326 329 329 328 324 322 319 317 318 316 311 308 308 304 305 310 305 294 289 285 283 280 279 279 276 276 276 269 267 270 272 269 270 273 275 277 280 280 281 278 266 269
321 322 325 328 330 324 321 320 319 321 322 323 319 319 317 319 324 317 303 293 288 284 281 280 279 279 288 280 281 282 279 275 275 276 279 280 282 291 287 285 285 285 272
319 319 321 322 322 323 325 325 325 328 328 328 330 331 329 333 339 321 306 300 294 291 291 290 284 275 269 256 261 266 270 272 279 281 286 289 287 287 293 291 292 290 286
311 311 312 310 314 321 325 334 334 328 325 328 327 324 320 327 330 318 311 302 299 297 296 295 294 297 290 288 271 247 250 245 250 271 285 288 290 293 293 289 289 288 286
305 308 315 314 315 320 326 334 331 324 321 321 321 316 311 326 337 323 311 292 298 296 296 300 300 300 310 309 300 292 283 269 249 254 272 282 288 295 288 283 284 280 277
309 311 315 319 318 321 326 327 326 322 320 319 316 315 316 325 345 329 316 301 306 304 301 304 302 300 341 315 296 296 295 291 251 240 258 267 276 273 276 283 283 284 290
311 308 308 311 315 319 321 320 320 317 319 320 324 321 321 326 358 340 316 310 318 313 307 299 338 325 334 322 299 301 305 311 306 287 263 253 254 244 229 253 276 283 291
315 315 312 312 313 314 318 316 313 311 317 319 320 320 324 329 343 348 328 322 320 316 319 323 353 35 344 322 302 306 310 305 301 299 294 289 285 284 271 262 275 281 286
312 314 317 317 315 317 313 312 312 308 305 313 318 321 327 331 342 344 314 305 312 314 319 332 353 5 326 313 315 324 307 296 301 309 311 312 314 314 311 298 285 284 282
305 306 310 315 318 316 312 311 305 302 306 319 325 329 337 346 347 312 283 282 290 299 317 332 324 308 295 284 276 292 298 313 321 318 315 315 318 321 314 303 287 278 273
301 300 297 300 307 314 314 314 310 314 315 318 322 327 336 343 347 341 332 322 286 291 308 286 232 245 262 284 294 298 323 333 324 320 320 325 325 322 314 311 303 295 286
300 298 298 300 309 308 307 312 310 327 329 317 321 324 331 337 351 349 335 337 336 333 317 310 325 329 330 336 332 331 330 330 326 320 321 325 324 322 318 313 305 301 298
294 292 297 303 302 299 302 300 287 275 278 269 291 306 334 341 329 331 325 314 307 303 307 334 345 346 343 343 337 336 340 341 334 329 329 329 326 322 319 318 315 311 309
291 296 301 304 303 306 310 308 306 271 225 218 230 253 273 292 299 306 308 303 295 293 311 340 347 348 344 343 343 342 344 344 337 333 336 334 329 321 318 318 320 317 311
284 283 288 293 300 303 303 302 304 309 312 315 228 210 240 259 270 286 294 301 322 332 339 343 344 347 345 343 343 343 342 344 343 337 337 336 333 326 322 321 321 320 314
291 298 297 293 293 296 296 297 301 312 318 321 325 312 221 247 244 268 276 324 341 345 345 344 346 346 342 340 339 337 337 337 339 331 330 329 326 321 321 321 318 315 309
280 290 291 290 290 293 295 301 315 326 330 330 330 335 342 329 338 353 347 338 341 349 346 342 346 346 342 339 337 336 335 336 335 329 329 325 324 322 320 318 318 316 315
293 280 256 277 290 299 308 312 313 319 325 327 338 3 349 338 339 343 344 345 345 342 340 339 339 338 338 336 337 336 335 335 336 333 330 327 323 319 317 318 319 316 316
293 292 293 294 298 301 309 309 314 320 323 323 325 341 310 314 333 339 343 345 340 335 334 332 330 334 334 332 334 332 332 333 331 328 325 321 318 320 322 322 321 318 316
277 283 284 282 282 273 275 288 299 306 315 318 324 334 331 333 333 338 342 343 335 330 334 334 325 326 332 331 329 327 330 331 328 325 320 317 318 320 321 320 318 318 320
279 279 282 276 274 283 288 293 297 296 301 318 321 325 331 333 327 330 328 329 329 330 330 326 325 327 331 329 324 330 339 333 323 316 315 313 313 315 318 318 317 321 321
268 268 268 268 275 279 286 295 300 301 309 314 315 321 325 327 323 317 316 318 320 325 326 321 323 321 323 324 329 338 355 340 319 315 307 305 312 315 318 320 321 323 324
256 253 262 271 275 277 276 281 288 285 287 296 305 316 319 318 318 319 318 318 319 323 323 323 331 330 326 326 336 340 346 330 314 305 299 305 314 321 324 321 324 327 329
Height
1497 1496 1494 1492 1491 1490 1488 1486 1485 1483 1482 1481 1479 1478 1477 1476 1474 1473 1472 1470 1469 1468 1467 1467 1466 1465 1465 1464 1463 1463 1462 1462 1460 1458 1458 1457 1455 1454 1453 1452 1451 1450 1449
1497 1495 1493 1491 1490 1488 1486 1484 1483 1481 1479 1478 1477 1476 1475 1473 1472 1470 1469 1468 1467 1465 1464 1463 1463 1462 1461 1461 1460 1459 1459 1458 1456 1455 1454 1453 1452 1450 1449 1447 1447 1446 1445
1496 1494 1492 1490 1488 1486 1484 1482 1481 1479 1477 1476 1474 1473 1472 1471 1469 1468 1467 1465 1464 1463 1462 1461 1460 1459 1458 1458 1457 1456 1455 1454 1453 1451 1450 1449 1448 1447 1445 1443 1443 1441 1441
1495 1493 1491 1489 1487 1485 1483 1481 1479 1477 1476 1474 1472 1471 1470 1469 1467 1465 1464 1463 1461 1460 1459 1458 1457 1456 1455 1454 1453 1452 1452 1451 1449 1448 1447 1445 1444 1443 1441 1440 1439 1437 1436
1493 1492 1490 1488 1485 1483 1481 1480 1478 1476 1474 1472 1471 1469 1468 1467 1465 1463 1461 1460 1459 1458 1457 1456 1455 1453 1452 1451 1450 1449 1448 1447 1446 1444 1443 1442 1441 1439 1438 1437 1435 1434 1432
1492 1491 1489 1487 1485 1482 1480 1478 1476 1474 1473 1471 1469 1468 1466 1465 1463 1461 1459 1458 1457 1455 1454 1453 1452 1450 1449 1447 1446 1445 1444 1443 1442 1441 1440 1439 1437 1436 1435 1434 1432 1431 1429
1491 1489 1488 1486 1484 1482 1480 1477 1475 1473 1471 1470 1468 1467 1465 1463 1461 1459 1457 1456 1454 1453 1451 1450 1449 1447 1446 1445 1443 1442 1441 1439 1438 1437 1436 1435 1434 1433 1431 1430 1429 1427 1425
1490 1488 1487 1485 1483 1481 1479 1476 1474 1472 1470 1469 1467 1465 1464 1462 1460 1458 1455 1453 1452 1450 1449 1447 1446 1444 1443 1441 1440 1439 1438 1436 1435 1434 1432 1431 1431 1429 1428 1427 1425 1424 1422
1488 1486 1485 1483 1481 1479 1478 1475 1473 1471 1469 1468 1466 1464 1462 1461 1458 1456 1454 1452 1451 1449 1447 1445 1443 1442 1440 1438 1437 1436 1435 1433 1432 1430 1429 1427 1426 1425 1424 1424 1423 1421 1419
1486 1484 1482 1481 1480 1478 1476 1474 1472 1470 1469 1467 1465 1463 1461 1459 1457 1455 1452 1451 1449 1447 1445 1443 1441 1439 1437 1436 1435 1433 1432 1431 1429 1428 1426 1424 1423 1422 1421 1420 1420 1419 1417
1484 1482 1481 1479 1478 1477 1475 1473 1471 1469 1468 1466 1464 1462 1460 1458 1456 1453 1451 1450 1448 1446 1444 1442 1440 1437 1435 1434 1432 1431 1429 1428 1427 1425 1424 1422 1421 1420 1418 1417 1416 1415 1414
1483 1481 1479 1478 1477 1476 1474 1472 1470 1468 1467 1465 1463 1461 1459 1457 1454 1452 1450 1448 1446 1444 1443 1441 1439 1436 1433 1432 1430 1429 1427 1426 1425 1424 1422 1420 1419 1418 1416 1415 1413 1412 1411
1481 1480 1478 1477 1476 1474 1473 1471 1469 1467 1465 1464 1462 1460 1458 1456 1454 1451 1448 1447 1445 1443 1441 1439 1437 1434 1432 1430 1429 1427 1426 1425 1424 1422 1420 1419 1417 1415 1414 1412 1411 1409 1408
1480 1478 1477 1476 1474 1473 1471 1470 1468 1466 1464 1462 1460 1458 1457 1455 1452 1450 1448 1446 1444 1442 1440 1438 1435 1433 1431 1429 1428 1426 1425 1423 1421 1420 1418 1417 1415 1413 1412 1410 1409 1407 1406
1478 1477 1476 1475 1473 1471 1469 1467 1466 1464 1462 1461 1459 1458 1456 1453 1451 1449 1447 1444 1442 1440 1438 1436 1434 1432 1431 1429 1427 1425 1424 1422 1420 1418 1417 1415 1413 1411 1410 1408 1407 1405 1404
1477 1476 1475 1473 1471 1470 1468 1466 1464 1462 1460 1459 1457 1455 1454 1452 1450 1448 1445 1443 1441 1439 1437 1435 1433 1431 1430 1428 1426 1424 1423 1421 1419 1417 1415 1413 1411 1410 1408 1406 1405 1403 1402
1475 1474 1473 1471 1470 1468 1466 1465 1463 1461 1459 1457 1455 1453 1452 1450 1448 1446 1444 1442 1440 1438 1436 1434 1433 1431 1429 1428 1426 1424 1422 1420 1418 1416 1414 1412 1410 1408 1407 1405 1403 1401 1400
1473 1472 1471 1469 1468 1467 1465 1464 1462 1461 1459 1456 1454 1452 1450 1448 1447 1445 1442 1440 1438 1436 1435 1433 1432 1430 1429 1427 1425 1423 1422 1420 1418 1416 1414 1412 1409 1407 1405 1404 1402 1400 1398
1471 1470 1468 1467 1466 1465 1464 1462 1461 1459 1457 1455 1453 1451 1449 1448 1446 1443 1441 1440 1438 1436 1434 1433 1431 1430 1428 1426 1425 1423 1421 1419 1417 1415 1413 1411 1409 1406 1404 1402 1400 1398 1396
1469 1467 1466 1466 1465 1463 1462 1461 1459 1458 1456 1454 1452 1450 1449 1447 1445 1443 1441 1439 1438 1436 1434 1432 1431 1429 1428 1426 1424 1422 1420 1418 1416 1414 1412 1410 1407 1405 1403 1401 1399 1397 1395
1467 1466 1464 1464 1463 1462 1461 1459 1458 1456 1455 1453 1451 1449 1447 1446 1444 1443 1441 1439 1437 1435 1434 1432 1430 1429 1427 1425 1423 1421 1419 1417 1415 1413 1410 1408 1406 1404 1402 1399 1397 1395 1393
1466 1465 1464 1463 1461 1460 1459 1458 1457 1455 1453 1452 1451 1449 1447 1446 1444 1442 1441 1439 1437 1435 1433 1431 1430 1428 1426 1424 1422 1420 1418 1416 1413 1411 1409 1407 1404 1402 1400 1398 1396 1394 1392
1464 1463 1462 1461 1460 1459 1458 1457 1456 1454 1453 1451 1450 1448 1447 1445 1443 1442 1440 1438 1436 1434 1432 1430 1429 1427 1425 1423 1421 1419 1417 1414 1412 1409 1407 1405 1403 1401 1399 1396 1394 1393 1390
1462 1461 1460 1459 1459 1458 1457 1455 1454 1453 1452 1450 1449 1447 1446 1444 1442 1441 1439 1437 1435 1433 1431 1430 1428 1426 1424 1422 1420 1418 1415 1412 1410 1407 1405 1403 1401 1399 1397 1395 1393 1391 1389
1460 1459 1459 1458 1457 1456 1455 1454 1453 1452 1451 1449 1448 1446 1445 1443 1441 1440 1438 1436 1434 1432 1430 1429 1427 1425 1423 1420 1418 1416 1413 1410 1408 1405 1403 1401 1399 1397 1396 1394 1392 1390 1388
1458 1457 1457 1456 1456 1455 1454 1453 1452 1450 1449 1448 1446 1445 1443 1442 1440 1438 1437 1435 1433 1431 1429 1427 1425 1423 1421 1419 1416 1414 1411 1409 1406 1404 1402 1400 1398 1396 1394 1393 1391 1389 1387